�������ċp�F�����K�X���j�^�v���󋵏��
Date,Time,�ċp�F�����K�X���j�^(cps),����,����(m/s)
2021/07/28,00:00,1.5,�k,10.7
2021/07/28,00:10,1.5,�k,9.5
2021/07/28,00:20,1.5,�k�k��,10.9
2021/07/28,00:30,1.5,�k�k��,10.8
2021/07/28,00:40,1.5,�k�k��,12.4
2021/07/28,00:50,1.5,�k�k��,9.9
2021/07/28,01:00,1.4,�k��,10.3
2021/07/28,01:10,1.5,�k�k��,8.3
2021/07/28,01:20,1.5,�k��,9.1
2021/07/28,01:30,1.6,�k��,10.8
2021/07/28,01:40,1.6,�k��,9.8
2021/07/28,01:50,1.6,�k��,8.8
2021/07/28,02:00,1.5,�k��,9.9
2021/07/28,02:10,1.5,�k��,10.2
2021/07/28,02:20,1.5,�k��,10.2
2021/07/28,02:30,1.5,���k��,9.1
2021/07/28,02:40,1.4,���k��,10.0
2021/07/28,02:50,1.6,���k��,7.8
2021/07/28,03:00,1.5,���k��,11.3
2021/07/28,03:10,1.4,���k��,8.2
2021/07/28,03:20,1.5,���k��,10.5
2021/07/28,03:30,1.5,���k��,11.6
2021/07/28,03:40,1.4,���k��,8.4
2021/07/28,03:50,1.5,��,8.6
2021/07/28,04:00,1.4,��,8.9
2021/07/28,04:10,1.5,��,7.7
2021/07/28,04:20,1.5,���k��,8.0
2021/07/28,04:30,1.6,���k��,6.3
2021/07/28,04:40,1.5,��,4.0
2021/07/28,04:50,1.4,���쐼,4.9
2021/07/28,05:00,1.5,���쐼,5.6
2021/07/28,05:10,1.4,���쐼,3.6
2021/07/28,05:20,1.5,���쐼,2.3
2021/07/28,05:30,1.5,��,6.1
2021/07/28,05:40,1.5,��,6.1
2021/07/28,05:50,1.5,���쐼,5.9
2021/07/28,06:00,1.4,���쐼,4.5
2021/07/28,06:10,1.5,�쐼,4.8
2021/07/28,06:20,1.4,���쐼,6.1
2021/07/28,06:30,1.5,���쐼,7.2
2021/07/28,06:40,1.5,���쐼,7.6
2021/07/28,06:50,1.4,���쐼,8.5
2021/07/28,07:00,1.5,���쐼,4.3
2021/07/28,07:10,1.5,��쓌,2.0
2021/07/28,07:20,1.4,��쓌,2.3
2021/07/28,07:30,1.5,��쓌,2.0
2021/07/28,07:40,1.6,��쓌,5.6
2021/07/28,07:50,1.5,��,5.5
2021/07/28,08:00,1.5,��쐼,5.4
2021/07/28,08:10,1.5,��,5.8
2021/07/28,08:20,1.5,��,6.0
2021/07/28,08:30,1.6,��,6.1
2021/07/28,08:40,1.6,��,3.8
2021/07/28,08:50,1.5,��,4.6
2021/07/28,09:00,1.5,��,4.7
2021/07/28,09:10,1.4,��,5.4
2021/07/28,09:20,1.5,��쓌,6.7
2021/07/28,09:30,1.5,��,7.5
2021/07/28,09:40,1.5,��쓌,9.3
2021/07/28,09:50,1.4,��쓌,8.4
2021/07/28,10:00,1.6,��,6.3
2021/07/28,10:10,1.5,��쓌,7.7
2021/07/28,10:20,1.5,��쓌,10.5
2021/07/28,10:30,1.6,��쓌,9.8
2021/07/28,10:40,1.5,��쓌,9.8
2021/07/28,10:50,1.5,��쓌,9.7
2021/07/28,11:00,1.5,��쓌,9.7
2021/07/28,11:10,1.5,��쓌,9.0
2021/07/28,11:20,1.5,��쓌,11.0
2021/07/28,11:30,1.5,��쓌,11.6
2021/07/28,11:40,1.5,��쓌,11.6
2021/07/28,11:50,1.5,��쓌,11.9
2021/07/28,12:00,1.5,��쓌,11.6
2021/07/28,12:10,1.5,��쓌,10.9
2021/07/28,12:20,1.4,��쓌,10.5
2021/07/28,12:30,1.5,��쓌,10.6
2021/07/28,12:40,1.4,��쓌,13.3
2021/07/28,12:50,1.5,��쓌,13.1
2021/07/28,13:00,1.4,��쓌,13.0
2021/07/28,13:10,1.5,��쓌,12.4
2021/07/28,13:20,1.4,��쓌,12.0
2021/07/28,13:30,1.5,��쓌,11.1
2021/07/28,13:40,1.4,��쓌,11.4
2021/07/28,13:50,1.5,��쓌,11.7
2021/07/28,14:00,1.5,��쓌,12.0
2021/07/28,14:10,1.5,��쓌,13.3
2021/07/28,14:20,1.4,��쓌,13.0
2021/07/28,14:30,1.6,��쓌,11.9
2021/07/28,14:40,1.4,��쓌,12.5
2021/07/28,14:50,1.5,��,10.3
2021/07/28,15:00,1.4,��,8.8
2021/07/28,15:10,1.4,��,7.7
2021/07/28,15:20,1.5,��,8.8
2021/07/28,15:30,1.4,��,7.3
2021/07/28,15:40,1.4,��,7.2
2021/07/28,15:50,1.5,��,6.4
2021/07/28,16:00,1.4,��,6.8
2021/07/28,16:10,1.5,��쓌,7.5
2021/07/28,16:20,1.4,��쓌,8.0
2021/07/28,16:30,1.5,��쓌,8.6
2021/07/28,16:40,1.5,��쓌,8.2
2021/07/28,16:50,1.5,��쓌,8.9
2021/07/28,17:00,1.4,��,9.7
2021/07/28,17:10,1.4,��,7.8
2021/07/28,17:20,1.3,��,7.1
2021/07/28,17:30,1.4,��,8.2
2021/07/28,17:40,1.4,��,8.4
2021/07/28,17:50,1.5,��,7.6
2021/07/28,18:00,1.4,��,6.7
2021/07/28,18:10,1.5,��쐼,5.6
2021/07/28,18:20,1.4,��쓌,8.1
2021/07/28,18:30,1.5,��,5.3
2021/07/28,18:40,1.4,��,5.5
2021/07/28,18:50,1.4,��쐼,4.3
2021/07/28,19:00,1.5,��쐼,6.1
2021/07/28,19:10,1.5,��쐼,2.9
2021/07/28,19:20,1.5,��,5.4
2021/07/28,19:30,1.4,��,5.8
2021/07/28,19:40,1.5,��,4.4
2021/07/28,19:50,1.5,��쐼,5.6
2021/07/28,20:00,1.5,��,6.8
2021/07/28,20:10,1.5,��,5.8
2021/07/28,20:20,1.4,��,4.6
2021/07/28,20:30,1.5,��,4.2
2021/07/28,20:40,1.5,��,3.2
2021/07/28,20:50,1.5,��,2.3
2021/07/28,21:00,1.5,��쐼,2.8
2021/07/28,21:10,1.5,��,3.9
2021/07/28,21:20,1.4,��,3.9
2021/07/28,21:30,1.5,��,3.4
2021/07/28,21:40,1.4,��쓌,3.7
2021/07/28,21:50,1.5,��쓌,3.1
2021/07/28,22:00,1.6,��쓌,4.1
2021/07/28,22:10,1.5,��,2.6
2021/07/28,22:20,1.4,��쐼,2.3
2021/07/28,22:30,1.6,�쐼,2.0
2021/07/28,22:40,1.4,�쐼,0.9
2021/07/28,22:50,1.5,���k��,1.1
2021/07/28,23:00,1.5,�k��,1.4
2021/07/28,23:10,1.5,���k��,1.5
2021/07/28,23:20,1.5,�k��,1.2
2021/07/28,23:30,1.4,�k,0.6
2021/07/28,23:40,1.5,�k��,1.2
2021/07/28,23:50,1.5,-,CALM
